Location: Chervonnoye
(48.6000°N, 34.4000°E)
Time: 20:53:20
(UTC+00:00)

Helios 1A Rocket - Pass Details

Date: 23 November 2020
Orbit: 564 x 585 km, 98.3° (Epoch: 27 January)

Event Time Altitude Azimuth Distance (km) Brightness Sun altitude
Rises 15:26:40 0° 141° (SE) 2,755 6.1 -14.9°
Enters shadow 15:27:11 - 140° (SE) 2,550 6.0 -15.0°
Exits shadow 15:29:03 11° 132° (SE) 1,819 5.1 -15.3°
Maximum altitude 15:32:35 34° 67° (ENE) 944 3.5 -15.8°
Drops below altitude 10° 15:36:14 10° 2° (N) 1,870 5.4 -16.4°
Sets 15:38:31 0° 354° (N) 2,772 6.3 -16.8°
